Flag for United Arab Emirates Weather past 2 weeks in Abu Dhabi, Abu Dhabi, United Arab Emirates

Now
84 °F

Sunny.


Feels Like: 87 °F
Forecast: 79 / 91 °F
Wind: 2 mph from North

Location: Abu Dhabi Bateen Airport

Current Time: Oct 25, 2014 at 9:54:40 AM

Latest Report: Oct 25, 2014 at 9:00 AM


Visibility: 10 mi

Pressure: 29.89 "Hg

Humidity: 58%

Dew point: 68 °F

Location of Abu DhabiLocation

Historic Weather in Abu Dhabi — Graph

°F

Abu Dhabi temperature yesterday

Maximum temperature yesterday: 91 °F (at 3:00 PM)
Minimum temperature yesterday: 77 °F (at 7:00 AM)
Average temperature yesterday: 84 °F

Past Weeks' High & Low Weather Summary

 TemperatureHumidityPressure
High104 °F (Oct 14, 1:00 PM)84% (Oct 12, 5:00 AM)30.01 "Hg (Oct 12, 5:00 AM)
Low75 °F (Oct 25, 6:00 AM)11% (Oct 21, 2:00 PM)29.56 "Hg (Oct 11, 1:00 PM)
Average88 °F54%29.87 "Hg
* Reported Oct 10 9:00 AM — Oct 25 9:00 AM, Abu Dhabi, Weather by CustomWeather, © 2014

Note: Actual official high and low records may vary slightly from our data, if they occured in-between our weather recording intervals... More about our weather records

Advertising

Abu Dhabi weather history for previous 24 hours

 ConditionsComfort  
Time TempWeatherWind HumidityBarometerVisibility
9:00 AM
Oct 25
84 °FSunny.2 mph58%29.89 "Hg10 mi
8:00 AM79 °FPassing clouds.5 mph70%29.89 "HgN/A
7:00 AM75 °FSunny.3 mph78%29.86 "Hg10 mi
6:00 AM75 °FClear.No wind74%29.86 "Hg10 mi
5:00 AM77 °FClear.No wind74%29.83 "Hg10 mi
4:00 AM79 °FClear.No wind70%29.83 "Hg10 mi
3:00 AM81 °FClear.3 mph66%29.86 "Hg10 mi
2:00 AM79 °FClear.5 mph70%29.86 "Hg10 mi
1:00 AM81 °FClear.3 mph66%29.86 "Hg10 mi
12:00 AM82 °FClear.2 mph62%29.86 "Hg10 mi
11:00 PM
Oct 24
82 °FClear.3 mph62%29.89 "Hg10 mi
10:00 PM84 °FClear.2 mph55%29.89 "Hg10 mi
9:00 PM84 °FClear.5 mph55%29.86 "Hg10 mi
8:00 PM86 °FClear.8 mph49%29.86 "Hg10 mi
7:00 PM86 °FClear.10 mph46%29.83 "Hg10 mi
6:00 PM86 °FClear.13 mph46%29.83 "Hg10 mi
5:00 PM90 °FSunny.13 mph36%29.83 "Hg10 mi
4:00 PM90 °FSunny.10 mph38%29.83 "Hg10 mi
3:00 PM91 °FPassing clouds.12 mph36%29.83 "HgN/A
2:00 PM90 °FPassing clouds.7 mph38%29.83 "HgN/A
1:00 PM90 °FPassing clouds.7 mph41%29.86 "HgN/A
12:00 PM90 °FSunny.2 mph43%29.89 "Hg10 mi
11:00 AM86 °FPassing clouds.6 mph52%29.92 "HgN/A
10:00 AMN/A7 mphN/AN/AN/A
9:00 AM81 °FPassing clouds.5 mph62%29.92 "HgN/A
Weather by CustomWeather, © 2014

See weather overviewHow to use our weather pages